Location: Greenwich
(51.4790°N, 0.0090°E)
Time: 00:58:42
(UTC+01:00)

Tiangong - Visible Passes

Search period start: 29 September 2021 00:00
Search period end: 09 October 2021 00:00
Orbit: 382 x 385 km, 41.5° (Epoch: 28 September)

Date Brightness Start Highest point End Pass type
(mag) Time Alt. Az. Time Alt. Az. Time Alt. Az.
30 Sep 3.6 05:49:09 10° SSW 05:50:42 13° S 05:52:16 10° SE visible
01 Oct 3.9 04:51:43 11° SSE 04:51:43 11° SSE 04:52:04 10° SSE visible
01 Oct 3.5 06:25:20 10° SW 06:27:02 14° S 06:28:43 10° SSE visible
02 Oct 3.3 05:26:51 14° S 05:27:19 14° S 05:29:03 10° SE visible
03 Oct 3.5 06:02:13 10° SW 06:03:37 12° S 06:05:01 10° SSE visible
04 Oct 3.7 05:04:56 12° SSE 05:04:56 12° SSE 05:05:35 10° SSE visible
05 Oct 3.6 05:40:07 10° SSW 05:40:08 10° SSW 05:40:41 10° S visible
